Time,TemperatureF,DewpointF,PressureIn,WindDirection,WindDirectionDegrees,WindSpeedMPH,WindSpeedGustMPH,Humidity,HourlyPrecipIn,Conditions,Clouds,dailyrainin,SolarRadiationWatts/m^2,SoftwareType,DateUTC
2013-04-06 00:02:00,33.8,31.2,30.01,ENE,63,0.0,0.0,90,0.00,,OVC070,0.00,0.00,VWS V14.01,2013-04-06 05:02:00,
2013-04-06 00:07:00,33.8,31.2,30.01,East,84,1.0,3.0,90,0.00,,OVC070,0.00,0.00,VWS V14.01,2013-04-06 05:07:00,
2013-04-06 00:12:00,33.8,30.9,30.01,ENE,71,0.0,3.0,89,0.00,,OVC070,0.00,0.00,VWS V14.01,2013-04-06 05:12:00,
2013-04-06 00:17:00,33.9,31.0,30.00,ENE,71,0.0,3.0,89,0.00,,OVC070,0.00,0.00,VWS V14.01,2013-04-06 05:17:00,
2013-04-06 00:22:00,33.9,31.0,30.00,ENE,71,1.0,3.0,89,0.00,,OVC070,0.00,0.00,VWS V14.01,2013-04-06 05:22:00,
2013-04-06 00:27:00,33.9,31.0,30.00,ESE,107,1.0,3.0,89,0.00,,OVC070,0.00,0.00,VWS V14.01,2013-04-06 05:27:00,
2013-04-06 00:32:00,33.9,31.0,30.00,ENE,67,1.0,5.0,89,0.00,,OVC070,0.00,0.00,VWS V14.01,2013-04-06 05:32:00,
2013-04-06 00:37:00,33.9,31.0,30.00,ENE,75,2.0,5.0,89,0.00,,OVC070,0.00,0.00,VWS V14.01,2013-04-06 05:37:00,
2013-04-06 00:42:00,34.0,31.1,29.99,SE,126,2.0,5.0,89,0.00,,OVC070,0.00,0.00,VWS V14.01,2013-04-06 05:42:00,
2013-04-06 00:47:00,34.0,31.1,30.00,ESE,114,3.0,5.0,89,0.00,,OVC070,0.00,0.00,VWS V14.01,2013-04-06 05:47:00,
2013-04-06 00:52:00,34.0,31.1,29.98,East,91,1.0,5.0,89,0.00,,OVC070,0.00,0.00,VWS V14.01,2013-04-06 05:52:00,
2013-04-06 00:57:00,34.0,31.1,29.98,East,88,1.0,5.0,89,0.00,,OVC070,0.00,0.00,VWS V14.01,2013-04-06 05:57:00,
2013-04-06 01:02:00,34.0,31.1,29.98,ENE,75,2.0,5.0,89,0.00,,OVC060,0.00,0.00,VWS V14.01,2013-04-06 06:02:00,
2013-04-06 01:07:00,34.1,31.5,29.97,East,80,2.0,5.0,90,0.00,,OVC060,0.00,0.00,VWS V14.01,2013-04-06 06:07:00,
2013-04-06 01:12:00,34.1,31.5,29.97,East,86,3.0,5.0,90,0.00,,OVC060,0.00,0.00,VWS V14.01,2013-04-06 06:12:00,
2013-04-06 01:17:00,34.0,31.4,29.97,East,92,1.0,5.0,90,0.00,,OVC060,0.00,0.00,VWS V14.01,2013-04-06 06:17:00,
2013-04-06 01:22:00,34.1,31.5,29.97,ESE,111,2.0,5.0,90,0.00,,OVC060,0.00,0.00,VWS V14.01,2013-04-06 06:22:00,
2013-04-06 01:27:00,34.1,31.5,29.97,ESE,114,3.0,5.0,90,0.00,,OVC060,0.00,0.00,VWS V14.01,2013-04-06 06:27:00,
2013-04-06 01:32:00,34.1,31.5,29.97,ESE,112,2.0,5.0,90,0.00,,OVC060,0.00,0.00,VWS V14.01,2013-04-06 06:32:00,
2013-04-06 01:38:00,34.1,31.5,29.96,ESE,112,2.0,5.0,90,0.00,,OVC060,0.00,0.00,VWS V14.01,2013-04-06 06:38:00,
2013-04-06 01:43:00,34.1,31.5,29.96,ESE,108,2.0,5.0,90,0.00,,OVC060,0.00,0.00,VWS V14.01,2013-04-06 06:43:00,
2013-04-06 01:48:00,34.1,31.5,29.96,ESE,108,2.0,5.0,90,0.00,,OVC060,0.00,0.00,VWS V14.01,2013-04-06 06:48:00,
2013-04-06 01:53:00,34.1,31.5,29.97,East,94,2.0,5.0,90,0.00,,OVC060,0.00,0.00,VWS V14.01,2013-04-06 06:53:00,
2013-04-06 01:58:00,34.1,31.5,29.97,East,101,2.0,5.0,90,0.00,,OVC060,0.00,0.00,VWS V14.01,2013-04-06 06:58:00,
2013-04-06 02:03:00,34.1,31.5,29.97,ESE,123,3.0,4.0,90,0.00,,OVC100,0.00,0.00,VWS V14.01,2013-04-06 07:03:00,
2013-04-06 02:08:00,34.1,31.5,29.96,SE,138,3.0,5.0,90,0.00,,OVC100,0.00,0.00,VWS V14.01,2013-04-06 07:08:00,
2013-04-06 02:13:00,34.1,31.5,29.95,ESE,103,0.0,7.0,90,0.00,,OVC100,0.00,0.00,VWS V14.01,2013-04-06 07:13:00,
2013-04-06 02:18:00,34.1,31.5,29.95,SE,136,3.0,7.0,90,0.00,,OVC100,0.00,0.00,VWS V14.01,2013-04-06 07:18:00,
2013-04-06 02:23:00,34.1,31.5,29.95,SE,136,3.0,7.0,90,0.00,,OVC100,0.00,0.00,VWS V14.01,2013-04-06 07:23:00,
2013-04-06 02:28:00,34.1,31.5,29.94,ESE,115,4.0,7.0,90,0.00,,OVC100,0.00,0.00,VWS V14.01,2013-04-06 07:28:00,
2013-04-06 02:33:00,34.1,31.5,29.94,ENE,77,2.0,6.0,90,0.00,,OVC100,0.00,0.00,VWS V14.01,2013-04-06 07:33:00,
2013-04-06 02:38:00,34.0,31.4,29.94,ESE,123,1.0,6.0,90,0.00,,OVC100,0.00,0.00,VWS V14.01,2013-04-06 07:38:00,
2013-04-06 02:43:00,34.0,31.4,29.94,SSE,151,2.0,10.0,90,0.00,,OVC100,0.00,0.00,VWS V14.01,2013-04-06 07:43:00,
2013-04-06 02:48:00,34.0,31.4,29.93,ESE,123,4.0,10.0,90,0.00,,OVC100,0.00,0.00,VWS V14.01,2013-04-06 07:48:00,
2013-04-06 02:53:00,33.9,31.3,29.93,ESE,112,3.0,10.0,90,0.00,,OVC100,0.00,0.00,VWS V14.01,2013-04-06 07:53:00,
2013-04-06 02:58:00,33.9,31.3,29.93,ENE,77,1.0,10.0,90,0.00,,OVC100,0.00,0.00,VWS V14.01,2013-04-06 07:58:00,
2013-04-06 03:03:00,33.8,31.2,29.92,East,98,3.0,5.0,90,0.00,,OVC100,0.00,0.00,VWS V14.01,2013-04-06 08:03:00,
2013-04-06 03:08:00,33.8,31.2,29.92,ESE,111,2.0,7.0,90,0.00,,OVC100,0.00,0.00,VWS V14.01,2013-04-06 08:08:00,
2013-04-06 03:13:00,33.8,32.8,29.92,ESE,105,2.0,7.0,96,0.00,,OVC100,0.00,0.00,VWS V14.01,2013-04-06 08:13:00,
2013-04-06 03:18:00,33.8,31.2,29.92,ESE,107,4.0,7.0,90,0.00,,OVC100,0.00,0.00,VWS V14.01,2013-04-06 08:18:00,
2013-04-06 03:23:00,33.8,32.8,29.92,ESE,114,2.0,7.0,96,0.00,,OVC100,0.00,0.00,VWS V14.01,2013-04-06 08:23:00,
2013-04-06 03:28:00,33.8,32.8,29.91,ESE,113,5.0,7.0,96,0.00,,OVC100,0.00,0.00,VWS V14.01,2013-04-06 08:28:00,
2013-04-06 03:33:00,33.8,32.8,29.91,East,100,2.0,7.0,96,0.00,,OVC100,0.00,0.00,VWS V14.01,2013-04-06 08:33:00,
2013-04-06 03:38:00,33.8,31.2,29.90,East,98,2.0,7.0,90,0.00,,OVC100,0.00,0.00,VWS V14.01,2013-04-06 08:38:00,
2013-04-06 03:43:00,33.9,31.3,29.90,ESE,113,5.0,7.0,90,0.00,,OVC100,0.00,0.00,VWS V14.01,2013-04-06 08:43:00,
2013-04-06 03:48:00,33.9,31.3,29.91,ESE,119,1.0,7.0,90,0.00,,OVC100,0.00,0.00,VWS V14.01,2013-04-06 08:48:00,
2013-04-06 03:53:00,33.9,31.3,29.91,ENE,63,4.0,7.0,90,0.00,,OVC100,0.00,0.00,VWS V14.01,2013-04-06 08:53:00,
2013-04-06 03:58:00,33.9,31.3,29.91,SE,136,4.0,7.0,90,0.00,,OVC100,0.00,0.00,VWS V14.01,2013-04-06 08:58:00,
2013-04-06 04:03:00,33.9,31.0,29.90,East,97,0.0,8.0,89,0.00,,OVC100,0.00,0.00,VWS V14.01,2013-04-06 09:03:00,
2013-04-06 04:08:00,33.8,30.9,29.89,ESE,115,1.0,8.0,89,0.00,,OVC100,0.00,0.00,VWS V14.01,2013-04-06 09:08:00,
2013-04-06 04:13:00,33.8,30.9,29.89,ESE,117,3.0,8.0,89,0.00,,OVC100,0.00,0.00,VWS V14.01,2013-04-06 09:13:00,
2013-04-06 04:18:00,33.8,30.9,29.88,SSE,160,5.0,8.0,89,0.00,,OVC100,0.00,0.00,VWS V14.01,2013-04-06 09:18:00,
2013-04-06 04:23:00,33.8,30.9,29.88,East,101,3.0,8.0,89,0.00,,OVC100,0.00,0.00,VWS V14.01,2013-04-06 09:23:00,
2013-04-06 04:28:00,33.8,30.9,29.88,SE,126,4.0,8.0,89,0.00,,OVC100,0.00,0.00,VWS V14.01,2013-04-06 09:28:00,
2013-04-06 04:33:00,33.8,30.9,29.87,SE,126,3.0,4.0,89,0.00,,OVC100,0.00,0.00,VWS V14.01,2013-04-06 09:33:00,
2013-04-06 04:38:00,33.7,30.8,29.87,ESE,111,2.0,5.0,89,0.00,,OVC100,0.00,0.00,VWS V14.01,2013-04-06 09:38:00,
2013-04-06 04:43:00,33.6,30.7,29.87,ESE,111,3.0,6.0,89,0.00,,OVC100,0.00,0.00,VWS V14.01,2013-04-06 09:43:00,
2013-04-06 04:48:00,33.6,30.7,29.87,East,83,2.0,9.0,89,0.00,,OVC100,0.00,0.00,VWS V14.01,2013-04-06 09:48:00,
2013-04-06 04:53:00,33.5,30.3,29.87,East,87,3.0,9.0,88,0.00,,OVC100,0.00,0.00,VWS V14.01,2013-04-06 09:53:00,
2013-04-06 04:58:00,33.5,30.3,29.87,SSE,150,3.0,9.0,88,0.00,,OVC100,0.00,0.00,VWS V14.01,2013-04-06 09:58:00,
2013-04-06 05:04:00,33.4,30.2,29.87,East,100,2.0,8.0,88,0.00,,OVC095,0.00,0.00,VWS V14.01,2013-04-06 10:04:00,
2013-04-06 05:09:00,33.3,30.1,29.86,SE,132,3.0,8.0,88,0.00,,OVC095,0.00,0.00,VWS V14.01,2013-04-06 10:09:00,
2013-04-06 05:14:00,33.3,29.9,29.86,ESE,122,4.0,8.0,87,0.00,,OVC095,0.00,0.00,VWS V14.01,2013-04-06 10:14:00,
2013-04-06 05:19:00,33.2,29.8,29.86,SE,134,6.0,9.0,87,0.00,,OVC095,0.00,0.00,VWS V14.01,2013-04-06 10:19:00,
2013-04-06 05:24:00,33.2,29.8,29.85,SE,126,1.0,9.0,87,0.00,,OVC095,0.00,0.00,VWS V14.01,2013-04-06 10:24:00,
2013-04-06 05:29:00,33.1,29.4,29.85,ESE,115,3.0,9.0,86,0.00,,OVC095,0.00,0.00,VWS V14.01,2013-04-06 10:29:00,
2013-04-06 05:34:00,33.1,31.0,29.85,ESE,113,3.0,5.0,92,0.00,,OVC095,0.00,0.00,VWS V14.01,2013-04-06 10:34:00,
2013-04-06 05:39:00,33.0,29.3,29.86,East,97,1.0,7.0,86,0.00,,OVC095,0.00,0.00,VWS V14.01,2013-04-06 10:39:00,
2013-04-06 05:44:00,33.0,29.3,29.85,SE,128,4.0,7.0,86,0.00,,OVC095,0.00,0.00,VWS V14.01,2013-04-06 10:44:00,
2013-04-06 05:49:00,32.9,29.2,29.85,ESE,108,0.0,7.0,86,0.00,,OVC095,0.00,0.00,VWS V14.01,2013-04-06 10:49:00,
2013-04-06 05:54:00,32.9,29.2,29.85,ESE,115,2.0,7.0,86,0.00,,OVC095,0.00,0.00,VWS V14.01,2013-04-06 10:54:00,
2013-04-06 05:59:00,32.8,29.1,29.84,SE,126,3.0,7.0,86,0.00,,OVC095,0.00,0.00,VWS V14.01,2013-04-06 10:59:00,
2013-04-06 06:04:00,32.8,28.8,29.84,ESE,113,3.0,8.0,85,0.00,,-RA,0.00,0.00,VWS V14.01,2013-04-06 11:04:00,
2013-04-06 06:09:00,32.8,28.8,29.84,SE,130,3.0,8.0,85,0.00,,-RA,0.00,0.00,VWS V14.01,2013-04-06 11:09:00,
2013-04-06 06:14:00,32.8,28.8,29.83,East,100,2.0,8.0,85,0.00,,-RA,0.00,0.00,VWS V14.01,2013-04-06 11:14:00,
2013-04-06 06:19:00,32.8,28.8,29.83,East,98,1.0,8.0,85,0.00,,-RA,0.00,0.00,VWS V14.01,2013-04-06 11:19:00,
2013-04-06 06:24:00,32.8,28.8,29.83,ESE,105,2.0,8.0,85,0.00,,-RA,0.00,0.00,VWS V14.01,2013-04-06 11:24:00,
2013-04-06 06:29:00,32.8,28.8,29.83,East,97,2.0,8.0,85,0.00,,-RA,0.00,0.00,VWS V14.01,2013-04-06 11:29:00,
2013-04-06 06:33:00,32.7,28.7,29.83,SSE,161,3.0,5.0,85,0.00,,-RA,0.00,0.00,VWS V14.01,2013-04-06 11:33:00,
2013-04-06 06:38:00,32.7,28.4,29.83,ESE,121,3.0,6.0,84,0.00,,-RA,0.00,0.00,VWS V14.01,2013-04-06 11:38:00,
2013-04-06 06:43:00,32.8,28.5,29.82,SE,139,3.0,6.0,84,0.00,,-RA,0.00,0.00,VWS V14.01,2013-04-06 11:43:00,
2013-04-06 06:48:00,32.8,28.5,29.82,ESE,105,3.0,6.0,84,0.00,,-RA,0.00,0.00,VWS V14.01,2013-04-06 11:48:00,
2013-04-06 06:53:00,32.7,28.1,29.82,ESE,109,3.0,6.0,83,0.00,,-RA,0.00,0.00,VWS V14.01,2013-04-06 11:53:00,
2013-04-06 06:58:00,32.8,27.9,29.82,East,79,1.0,6.0,82,0.00,,-RA,0.00,0.00,VWS V14.01,2013-04-06 11:58:00,
2013-04-06 07:03:00,32.8,27.9,29.82,ESE,106,3.0,6.0,82,0.00,,CLR,0.00,5.00,VWS V14.01,2013-04-06 12:03:00,
2013-04-06 07:08:00,32.9,28.0,29.82,SE,140,3.0,6.0,82,0.00,,CLR,0.00,7.00,VWS V14.01,2013-04-06 12:08:00,
2013-04-06 07:13:00,32.9,27.4,29.82,East,94,2.0,6.0,80,0.00,,CLR,0.00,7.00,VWS V14.01,2013-04-06 12:13:00,
2013-04-06 07:18:00,33.0,27.5,29.81,East,92,0.0,6.0,80,0.00,,CLR,0.00,9.00,VWS V14.01,2013-04-06 12:18:00,
2013-04-06 07:23:00,33.0,27.5,29.81,ESE,109,2.0,6.0,80,0.00,,CLR,0.00,11.00,VWS V14.01,2013-04-06 12:23:00,
2013-04-06 07:28:00,33.0,27.5,29.81,ESE,117,1.0,6.0,80,0.00,,CLR,0.00,12.00,VWS V14.01,2013-04-06 12:28:00,
2013-04-06 07:33:00,33.0,27.5,29.81,East,86,0.0,3.0,80,0.00,,CLR,0.00,14.00,VWS V14.01,2013-04-06 12:33:00,
2013-04-06 07:38:00,33.0,27.5,29.81,ESE,115,2.0,3.0,80,0.00,,CLR,0.00,16.00,VWS V14.01,2013-04-06 12:38:00,
2013-04-06 07:43:00,33.0,27.2,29.80,ESE,114,2.0,5.0,79,0.00,,CLR,0.00,19.00,VWS V14.01,2013-04-06 12:43:00,
2013-04-06 07:48:00,33.0,27.2,29.80,East,100,2.0,5.0,79,0.00,,CLR,0.00,23.00,VWS V14.01,2013-04-06 12:48:00,
2013-04-06 07:53:00,33.0,27.2,29.80,ESE,103,4.0,5.0,79,0.00,,CLR,0.00,25.00,VWS V14.01,2013-04-06 12:53:00,
2013-04-06 07:58:00,33.0,26.9,29.80,ESE,112,3.0,6.0,78,0.00,,CLR,0.00,30.00,VWS V14.01,2013-04-06 12:58:00,
2013-04-06 08:04:00,33.1,27.0,29.79,ESE,114,2.0,3.0,78,0.00,,FEW120,0.00,33.00,VWS V14.01,2013-04-06 13:04:00,
2013-04-06 08:09:00,33.2,27.1,29.79,ESE,117,1.0,5.0,78,0.00,,FEW120,0.00,35.00,VWS V14.01,2013-04-06 13:09:00,
2013-04-06 08:14:00,33.2,27.4,29.79,ESE,119,3.0,5.0,79,0.00,,FEW120,0.00,39.00,VWS V14.01,2013-04-06 13:14:00,
2013-04-06 08:19:00,33.3,27.2,29.79,SE,128,4.0,5.0,78,0.00,,FEW120,0.00,44.00,VWS V14.01,2013-04-06 13:19:00,
2013-04-06 08:24:00,33.4,27.3,29.78,East,97,1.0,7.0,78,0.00,,FEW120,0.00,44.00,VWS V14.01,2013-04-06 13:24:00,
2013-04-06 08:29:00,33.5,27.1,29.78,ESE,106,1.0,7.0,77,0.00,,FEW120,0.00,42.00,VWS V14.01,2013-04-06 13:29:00,
2013-04-06 08:34:00,33.5,27.4,29.78,ESE,118,3.0,5.0,78,0.00,,FEW120,0.00,40.00,VWS V14.01,2013-04-06 13:34:00,
2013-04-06 08:39:00,33.5,27.1,29.77,ESE,103,2.0,5.0,77,0.00,,FEW120,0.00,39.00,VWS V14.01,2013-04-06 13:39:00,
2013-04-06 08:44:00,33.6,26.9,29.77,East,100,3.0,7.0,76,0.00,,FEW120,0.00,44.00,VWS V14.01,2013-04-06 13:44:00,
2013-04-06 08:49:00,33.6,26.9,29.76,ESE,115,4.0,7.0,76,0.00,,FEW120,0.00,49.00,VWS V14.01,2013-04-06 13:49:00,
2013-04-06 08:54:00,33.7,27.3,29.76,ESE,103,2.0,7.0,77,0.00,,FEW120,0.00,58.00,VWS V14.01,2013-04-06 13:54:00,
2013-04-06 08:59:00,33.8,27.4,29.76,ESE,121,4.0,7.0,77,0.00,,FEW120,0.00,65.00,VWS V14.01,2013-04-06 13:59:00,
2013-04-06 09:04:00,33.9,27.1,29.75,SE,135,2.0,4.0,76,0.00,,BKN120,0.00,62.00,VWS V14.01,2013-04-06 14:04:00,
2013-04-06 09:09:00,34.0,27.2,29.75,SE,132,4.0,5.0,76,0.00,,BKN120,0.00,67.00,VWS V14.01,2013-04-06 14:09:00,
2013-04-06 09:14:00,34.2,27.4,29.75,ESE,109,1.0,5.0,76,0.00,,BKN120,0.00,84.00,VWS V14.01,2013-04-06 14:14:00,
2013-04-06 09:19:00,34.4,27.6,29.74,ENE,64,0.0,5.0,76,0.00,,BKN120,0.00,100.00,VWS V14.01,2013-04-06 14:19:00,
2013-04-06 09:25:00,34.6,27.5,29.74,SE,126,2.0,7.0,75,0.00,,BKN120,0.00,98.00,VWS V14.01,2013-04-06 14:25:00,
2013-04-06 09:30:00,34.8,27.7,29.74,ESE,121,3.0,3.0,75,0.00,,BKN120,0.00,109.00,VWS V14.01,2013-04-06 14:30:00,
2013-04-06 09:35:00,35.0,27.9,29.73,ENE,65,1.0,7.0,75,0.00,,BKN120,0.00,123.00,VWS V14.01,2013-04-06 14:35:00,
2013-04-06 09:40:00,35.2,27.8,29.72,ENE,72,1.0,7.0,74,0.00,,BKN120,0.00,144.00,VWS V14.01,2013-04-06 14:40:00,
2013-04-06 09:45:00,35.4,28.3,29.72,East,80,2.0,7.0,75,0.00,,BKN120,0.00,153.00,VWS V14.01,2013-04-06 14:45:00,
2013-04-06 09:50:00,35.6,28.1,29.72,ESE,106,2.0,7.0,74,0.00,,BKN120,0.00,186.00,VWS V14.01,2013-04-06 14:50:00,
2013-04-06 09:55:00,35.9,28.4,29.71,SE,143,4.0,8.0,74,0.00,,BKN120,0.00,195.00,VWS V14.01,2013-04-06 14:55:00,
2013-04-06 10:00:00,36.1,28.6,29.71,ESE,119,4.0,7.0,74,0.00,,BKN120,0.00,183.00,VWS V14.01,2013-04-06 15:00:00,
2013-04-06 10:05:00,36.2,28.4,29.70,ESE,107,1.0,7.0,73,0.01,,OVC120,0.01,202.00,VWS V14.01,2013-04-06 15:05:00,
2013-04-06 10:10:00,36.5,28.7,29.70,NE,46,3.0,9.0,73,0.01,,OVC120,0.01,253.00,VWS V14.01,2013-04-06 15:10:00,
2013-04-06 10:15:00,36.9,29.1,29.70,SE,130,6.0,9.0,73,0.02,,OVC120,0.02,380.00,VWS V14.01,2013-04-06 15:15:00,
2013-04-06 10:20:00,37.3,28.8,29.70,SSE,147,5.0,9.0,71,0.02,,OVC120,0.02,403.00,VWS V14.01,2013-04-06 15:20:00,
2013-04-06 10:25:00,37.7,29.5,29.70,ESE,121,4.0,9.0,72,0.02,,OVC120,0.02,350.00,VWS V14.01,2013-04-06 15:25:00,
2013-04-06 10:30:00,38.1,29.5,29.69,ESE,123,4.0,4.0,71,0.03,,OVC120,0.03,381.00,VWS V14.01,2013-04-06 15:30:00,
2013-04-06 10:35:00,38.5,29.6,29.69,ESE,116,2.0,5.0,70,0.03,,OVC120,0.03,390.00,VWS V14.01,2013-04-06 15:35:00,
2013-04-06 10:40:00,38.5,29.6,29.69,ESE,119,1.0,5.0,70,0.04,,OVC120,0.04,297.00,VWS V14.01,2013-04-06 15:40:00,
2013-04-06 10:45:00,38.6,29.3,29.68,East,86,3.0,11.0,69,0.05,,OVC120,0.05,367.00,VWS V14.01,2013-04-06 15:45:00,
2013-04-06 10:50:00,39.0,29.7,29.68,East,81,1.0,11.0,69,0.05,,OVC120,0.05,515.00,VWS V14.01,2013-04-06 15:50:00,
2013-04-06 10:55:00,39.5,29.8,29.68,ESE,105,2.0,11.0,68,0.06,,OVC120,0.06,429.00,VWS V14.01,2013-04-06 15:55:00,
2013-04-06 11:00:00,39.8,30.1,29.68,SE,141,4.0,4.0,68,0.07,,BKN110,0.07,485.00,VWS V14.01,2013-04-06 16:00:00,
2013-04-06 11:05:00,40.3,30.6,29.67,ESE,121,4.0,8.0,68,0.08,,BKN110,0.08,462.00,VWS V14.01,2013-04-06 16:05:00,
2013-04-06 11:11:00,40.3,30.2,29.67,ESE,121,4.0,8.0,67,0.08,,BKN110,0.08,494.00,VWS V14.01,2013-04-06 16:11:00,
2013-04-06 11:16:00,40.3,30.2,29.67,East,85,2.0,8.0,67,0.09,,BKN110,0.09,512.00,VWS V14.01,2013-04-06 16:16:00,
2013-04-06 11:21:00,40.5,30.0,29.66,East,98,3.0,11.0,66,0.10,,BKN110,0.10,380.00,VWS V14.01,2013-04-06 16:21:00,
2013-04-06 11:26:00,40.6,30.5,29.66,ENE,74,3.0,11.0,67,0.10,,BKN110,0.10,506.00,VWS V14.01,2013-04-06 16:26:00,
2013-04-06 11:31:00,40.9,30.8,29.66,SSE,167,3.0,4.0,67,0.08,,BKN110,0.11,410.00,VWS V14.01,2013-04-06 16:31:00,
2013-04-06 11:36:00,41.4,30.9,29.65,SE,138,6.0,8.0,66,0.08,,BKN110,0.11,656.00,VWS V14.01,2013-04-06 16:36:00,
2013-04-06 11:41:00,41.9,31.4,29.65,ESE,121,7.0,8.0,66,0.08,,BKN110,0.11,615.00,VWS V14.01,2013-04-06 16:41:00,
2013-04-06 11:46:00,42.4,31.1,29.64,ENE,75,3.0,9.0,64,0.09,,BKN110,0.12,782.00,VWS V14.01,2013-04-06 16:46:00,
2013-04-06 11:51:00,42.4,30.7,29.64,ESE,119,5.0,11.0,63,0.10,,BKN110,0.13,404.00,VWS V14.01,2013-04-06 16:51:00,
2013-04-06 11:56:00,42.5,31.2,29.64,SE,140,2.0,11.0,64,0.10,,BKN110,0.13,478.00,VWS V14.01,2013-04-06 16:56:00,
2013-04-06 12:01:00,42.6,30.9,29.64,ESE,114,7.0,12.0,63,0.07,,CLR,0.14,401.00,VWS V14.01,2013-04-06 17:01:00,
2013-04-06 12:06:00,42.9,30.8,29.63,ESE,113,2.0,12.0,62,0.07,,CLR,0.14,789.00,VWS V14.01,2013-04-06 17:06:00,
2013-04-06 12:11:00,43.4,31.7,29.63,ESE,107,5.0,12.0,63,0.07,,CLR,0.14,469.00,VWS V14.01,2013-04-06 17:11:00,
2013-04-06 12:16:00,43.3,31.2,29.63,SE,142,3.0,12.0,62,0.08,,CLR,0.15,485.00,VWS V14.01,2013-04-06 17:16:00,
2013-04-06 12:22:00,43.8,31.6,29.63,SE,132,7.0,12.0,62,0.08,,CLR,0.15,605.00,VWS V14.01,2013-04-06 17:22:00,
2013-04-06 12:27:00,43.8,31.6,29.62,South,175,3.0,12.0,62,0.08,,CLR,0.15,608.00,VWS V14.01,2013-04-06 17:27:00,
2013-04-06 12:32:00,44.4,31.8,29.62,SE,130,5.0,10.0,61,0.04,,CLR,0.15,761.00,VWS V14.01,2013-04-06 17:32:00,
2013-04-06 12:37:00,44.9,31.9,29.62,ESE,103,3.0,10.0,60,0.04,,CLR,0.15,647.00,VWS V14.01,2013-04-06 17:37:00,
2013-04-06 12:42:00,45.0,32.0,29.62,SSE,155,1.0,10.0,60,0.04,,CLR,0.15,529.00,VWS V14.01,2013-04-06 17:42:00,
2013-04-06 12:47:00,45.2,31.7,29.61,ESE,111,5.0,10.0,59,0.04,,CLR,0.15,693.00,VWS V14.01,2013-04-06 17:47:00,
2013-04-06 12:52:00,45.4,31.9,29.61,SE,128,6.0,10.0,59,0.04,,CLR,0.15,320.00,VWS V14.01,2013-04-06 17:52:00,
2013-04-06 12:57:00,45.3,31.8,29.61,SE,136,4.0,10.0,59,0.04,,CLR,0.15,522.00,VWS V14.01,2013-04-06 17:57:00,
2013-04-06 13:02:00,45.6,32.5,29.61,ESE,117,2.0,5.0,60,0.01,,FEW120,0.15,561.00,VWS V14.01,2013-04-06 18:02:00,
2013-04-06 13:07:00,46.1,32.6,29.61,ESE,119,4.0,5.0,59,0.01,,FEW120,0.15,527.00,VWS V14.01,2013-04-06 18:07:00,
2013-04-06 13:12:00,46.6,33.0,29.60,SSE,165,3.0,6.0,59,0.01,,FEW120,0.15,510.00,VWS V14.01,2013-04-06 18:12:00,
2013-04-06 13:17:00,46.5,32.5,29.60,ESE,108,2.0,10.0,58,0.01,,FEW120,0.15,519.00,VWS V14.01,2013-04-06 18:17:00,
2013-04-06 13:22:00,46.9,32.9,29.59,SSE,155,2.0,10.0,58,0.01,,FEW120,0.15,563.00,VWS V14.01,2013-04-06 18:22:00,
2013-04-06 13:27:00,47.1,33.1,29.59,ESE,121,3.0,10.0,58,0.01,,FEW120,0.15,468.00,VWS V14.01,2013-04-06 18:27:00,
2013-04-06 13:32:00,47.1,32.2,29.59,ESE,121,4.0,12.0,56,4.69,,FEW120,0.15,381.00,VWS V14.01,2013-04-06 18:32:00,
2013-04-06 13:37:00,47.0,32.6,29.59,ENE,64,1.0,12.0,57,4.69,,FEW120,0.15,353.00,VWS V14.01,2013-04-06 18:37:00,
2013-04-06 13:42:00,46.8,32.4,29.58,ESE,115,3.0,12.0,57,4.69,,FEW120,0.15,250.00,VWS V14.01,2013-04-06 18:42:00,
2013-04-06 13:47:00,46.7,32.7,29.58,East,100,2.0,12.0,58,4.69,,FEW120,0.15,304.00,VWS V14.01,2013-04-06 18:47:00,
2013-04-06 13:52:00,46.9,32.9,29.58,ESE,123,3.0,12.0,58,4.69,,FEW120,0.15,302.00,VWS V14.01,2013-04-06 18:52:00,
2013-04-06 13:57:00,46.9,32.9,29.58,SSE,157,4.0,12.0,58,4.69,,FEW120,0.15,306.00,VWS V14.01,2013-04-06 18:57:00,
2013-04-06 14:02:00,46.8,32.8,29.58,South,179,4.0,6.0,58,4.69,,BKN044,0.15,278.00,VWS V14.01,2013-04-06 19:02:00,
2013-04-06 14:07:00,46.9,32.9,29.58,SE,139,0.0,6.0,58,4.69,,BKN044,0.15,155.00,VWS V14.01,2013-04-06 19:07:00,
2013-04-06 14:12:00,46.9,33.3,29.57,ESE,111,2.0,6.0,59,4.69,,BKN044,0.15,178.00,VWS V14.01,2013-04-06 19:12:00,
2013-04-06 14:17:00,46.9,33.3,29.57,SE,143,3.0,6.0,59,4.69,,BKN044,0.15,169.00,VWS V14.01,2013-04-06 19:17:00,
2013-04-06 14:22:00,46.8,33.2,29.57,ESE,123,1.0,6.0,59,4.69,,BKN044,0.15,121.00,VWS V14.01,2013-04-06 19:22:00,
2013-04-06 14:27:00,46.6,33.0,29.57,SE,144,1.0,6.0,59,4.69,,BKN044,0.15,88.00,VWS V14.01,2013-04-06 19:27:00,
2013-04-06 14:32:00,46.5,33.4,29.57,SE,127,0.0,3.0,60,4.69,,BKN044,0.15,84.00,VWS V14.01,2013-04-06 19:32:00,
2013-04-06 14:37:00,46.3,33.2,29.57,SE,127,1.0,3.0,60,4.69,,BKN044,0.15,93.00,VWS V14.01,2013-04-06 19:37:00,
2013-04-06 14:42:00,46.0,33.3,29.57,SE,127,1.0,3.0,61,4.69,,BKN044,0.15,111.00,VWS V14.01,2013-04-06 19:42:00,
2013-04-06 14:47:00,45.7,33.4,29.56,ESE,121,0.0,3.0,62,4.69,,BKN044,0.15,95.00,VWS V14.01,2013-04-06 19:47:00,
2013-04-06 14:52:00,45.4,33.6,29.56,ESE,107,1.0,3.0,63,4.69,,BKN044,0.15,86.00,VWS V14.01,2013-04-06 19:52:00,
2013-04-06 14:57:00,45.3,33.5,29.56,ESE,107,0.0,3.0,63,4.69,,BKN044,0.15,69.00,VWS V14.01,2013-04-06 19:57:00,
2013-04-06 15:02:00,45.1,33.3,29.55,ESE,107,1.0,1.0,63,0.00,,OVC040,0.15,76.00,VWS V14.01,2013-04-06 20:02:00,
2013-04-06 15:07:00,45.1,33.7,29.55,ESE,107,0.0,1.0,64,0.00,,OVC040,0.15,79.00,VWS V14.01,2013-04-06 20:07:00,
2013-04-06 15:12:00,45.1,33.7,29.55,ESE,107,0.0,2.0,64,0.00,,OVC040,0.15,70.00,VWS V14.01,2013-04-06 20:12:00,
2013-04-06 15:17:00,44.9,33.5,29.54,ESE,107,1.0,3.0,64,0.00,,OVC040,0.15,63.00,VWS V14.01,2013-04-06 20:17:00,
2013-04-06 15:22:00,44.7,33.7,29.54,ESE,107,1.0,3.0,65,0.00,,OVC040,0.15,53.00,VWS V14.01,2013-04-06 20:22:00,
2013-04-06 15:27:00,44.4,33.8,29.54,East,93,2.0,3.0,66,0.00,,OVC040,0.15,56.00,VWS V14.01,2013-04-06 20:27:00,
2013-04-06 15:32:00,44.1,33.5,29.53,ENE,75,2.0,3.0,66,0.00,,OVC040,0.15,49.00,VWS V14.01,2013-04-06 20:32:00,
2013-04-06 15:37:00,44.0,33.4,29.52,SE,125,1.0,3.0,66,0.00,,OVC040,0.15,60.00,VWS V14.01,2013-04-06 20:37:00,
2013-04-06 15:42:00,43.8,33.6,29.52,ESE,106,1.0,4.0,67,0.00,,OVC040,0.15,56.00,VWS V14.01,2013-04-06 20:42:00,
2013-04-06 15:47:00,43.6,33.8,29.52,East,87,2.0,5.0,68,0.00,,OVC040,0.15,47.00,VWS V14.01,2013-04-06 20:47:00,
2013-04-06 15:52:00,43.5,34.0,29.52,East,91,1.0,5.0,69,0.00,,OVC040,0.15,47.00,VWS V14.01,2013-04-06 20:52:00,
2013-04-06 15:57:00,43.1,34.0,29.52,ENE,76,1.0,5.0,70,0.00,,OVC040,0.15,53.00,VWS V14.01,2013-04-06 20:57:00,
2013-04-06 16:02:00,42.9,34.8,29.52,East,101,0.0,2.0,73,0.00,,OVC038,0.15,63.00,VWS V14.01,2013-04-06 21:02:00,
2013-04-06 16:07:00,42.5,35.2,29.52,ENE,69,0.0,2.0,75,0.01,,OVC038,0.16,56.00,VWS V14.01,2013-04-06 21:07:00,
2013-04-06 16:13:00,42.0,35.3,29.51,ENE,69,1.0,2.0,77,0.01,,OVC038,0.16,35.00,VWS V14.01,2013-04-06 21:13:00,
2013-04-06 16:18:00,41.3,35.6,29.51,ENE,69,1.0,2.0,80,0.01,,OVC038,0.16,23.00,VWS V14.01,2013-04-06 21:18:00,
2013-04-06 16:23:00,40.8,35.4,29.51,ENE,69,1.0,2.0,81,0.01,,OVC038,0.16,21.00,VWS V14.01,2013-04-06 21:23:00,
2013-04-06 16:28:00,40.4,35.3,29.51,ENE,69,1.0,2.0,82,0.01,,OVC038,0.16,19.00,VWS V14.01,2013-04-06 21:28:00,
2013-04-06 16:33:00,40.1,35.4,29.51,ENE,69,0.0,1.0,83,0.01,,OVC038,0.16,16.00,VWS V14.01,2013-04-06 21:33:00,
2013-04-06 16:38:00,39.9,35.2,29.51,ENE,69,0.0,1.0,83,0.01,,OVC038,0.16,14.00,VWS V14.01,2013-04-06 21:38:00,
2013-04-06 16:43:00,39.7,35.0,29.50,ENE,69,0.0,2.0,83,0.01,,OVC038,0.16,14.00,VWS V14.01,2013-04-06 21:43:00,
2013-04-06 16:48:00,39.6,35.2,29.50,ENE,69,1.0,2.0,84,0.01,,OVC038,0.16,14.00,VWS V14.01,2013-04-06 21:48:00,
2013-04-06 16:53:00,39.6,34.9,29.50,ENE,69,0.0,2.0,83,0.01,,OVC038,0.16,16.00,VWS V14.01,2013-04-06 21:53:00,
2013-04-06 16:58:00,39.6,35.2,29.50,ENE,69,0.0,2.0,84,0.01,,OVC038,0.16,19.00,VWS V14.01,2013-04-06 21:58:00,
2013-04-06 17:03:00,39.6,35.2,29.50,ENE,69,0.0,1.0,84,0.02,,-RA,0.17,26.00,VWS V14.01,2013-04-06 22:03:00,
2013-04-06 17:08:00,39.6,35.2,29.50,ENE,69,0.0,1.0,84,0.02,,-RA,0.17,26.00,VWS V14.01,2013-04-06 22:08:00,
2013-04-06 17:13:00,39.6,35.5,29.50,ENE,69,0.0,1.0,85,0.02,,-RA,0.17,28.00,VWS V14.01,2013-04-06 22:13:00,
2013-04-06 17:18:00,39.6,35.8,29.49,ENE,69,0.0,1.0,86,0.03,,-RA,0.18,26.00,VWS V14.01,2013-04-06 22:18:00,
2013-04-06 17:23:00,39.5,35.7,29.49,ENE,69,0.0,1.0,86,0.03,,-RA,0.18,26.00,VWS V14.01,2013-04-06 22:23:00,
2013-04-06 17:28:00,39.4,35.9,29.49,ENE,69,0.0,1.0,87,0.04,,-RA,0.19,19.00,VWS V14.01,2013-04-06 22:28:00,
2013-04-06 17:33:00,39.3,35.8,29.49,ENE,69,0.0,0.0,87,0.03,,-RA,0.19,19.00,VWS V14.01,2013-04-06 22:33:00,
2013-04-06 17:38:00,39.2,36.0,29.49,ENE,69,1.0,1.0,88,0.04,,-RA,0.20,18.00,VWS V14.01,2013-04-06 22:38:00,
2013-04-06 17:43:00,39.2,36.0,29.49,ENE,69,0.0,1.0,88,0.04,,RA,0.20,16.00,VWS V14.01,2013-04-06 22:43:00,
2013-04-06 17:48:00,39.2,36.0,29.49,ENE,69,0.0,2.0,88,0.05,,RA,0.21,12.00,VWS V14.01,2013-04-06 22:48:00,
2013-04-06 17:53:00,39.1,35.8,29.49,ENE,69,0.0,2.0,88,0.06,,RA,0.22,11.00,VWS V14.01,2013-04-06 22:53:00,
2013-04-06 17:58:00,39.2,36.2,29.49,ENE,69,0.0,2.0,89,0.07,,RA,0.23,11.00,VWS V14.01,2013-04-06 22:58:00,
2013-04-06 18:03:00,39.2,36.2,29.49,ENE,69,1.0,1.0,89,0.08,,RA,0.24,11.00,VWS V14.01,2013-04-06 23:03:00,
2013-04-06 18:08:00,39.1,36.1,29.49,ENE,69,0.0,1.0,89,0.09,,RA,0.25,11.00,VWS V14.01,2013-04-06 23:08:00,
2013-04-06 18:13:00,38.9,35.9,29.49,ENE,69,0.0,1.0,89,0.09,,RA,0.25,7.00,VWS V14.01,2013-04-06 23:13:00,
2013-04-06 18:18:00,38.8,35.8,29.49,ENE,69,1.0,2.0,89,0.10,,RA,0.26,7.00,VWS V14.01,2013-04-06 23:18:00,
2013-04-06 18:23:00,38.9,35.9,29.50,NNW,336,1.0,3.0,89,0.11,,RA,0.27,7.00,VWS V14.01,2013-04-06 23:23:00,
2013-04-06 18:28:00,39.0,36.3,29.49,NNW,336,1.0,3.0,90,0.11,,RA,0.27,9.00,VWS V14.01,2013-04-06 23:28:00,
2013-04-06 18:33:00,38.9,36.2,29.50,NNW,336,2.0,3.0,90,0.09,,RA,0.28,7.00,VWS V14.01,2013-04-06 23:33:00,
2013-04-06 18:39:00,38.7,35.7,29.50,NNE,18,1.0,4.0,89,0.10,,RA,0.29,7.00,VWS V14.01,2013-04-06 23:39:00,
2013-04-06 18:44:00,38.7,35.7,29.50,NNE,13,2.0,4.0,89,0.11,,RA,0.30,7.00,VWS V14.01,2013-04-06 23:44:00,
2013-04-06 18:49:00,38.7,35.7,29.50,North,355,3.0,4.0,89,0.12,,RA,0.31,7.00,VWS V14.01,2013-04-06 23:49:00,
2013-04-06 18:54:00,38.7,35.7,29.50,NNW,343,4.0,5.0,89,0.13,,RA,0.32,0.00,VWS V14.01,2013-04-06 23:54:00,
2013-04-06 18:59:00,38.8,36.1,29.51,NNW,341,4.0,6.0,90,0.14,,RA,0.33,0.00,VWS V14.01,2013-04-06 23:59:00,
2013-04-06 19:04:00,38.7,35.7,29.51,North,355,2.0,7.0,89,0.11,,RA,0.34,0.00,VWS V14.01,2013-04-07 00:04:00,
2013-04-06 19:10:00,38.5,35.8,29.51,NNW,341,4.0,7.0,90,0.12,,RA,0.35,0.00,VWS V14.01,2013-04-07 00:10:00,
2013-04-06 19:15:00,38.4,35.7,29.51,North,355,2.0,7.0,90,0.13,,RA,0.36,0.00,VWS V14.01,2013-04-07 00:15:00,
2013-04-06 19:20:00,38.4,35.7,29.51,North,355,1.0,7.0,90,0.14,,RA,0.37,0.00,VWS V14.01,2013-04-07 00:20:00,
2013-04-06 19:25:00,38.3,35.6,29.52,NNW,336,4.0,7.0,90,0.15,,RA,0.38,0.00,VWS V14.01,2013-04-07 00:25:00,
2013-04-06 19:30:00,38.2,35.2,29.52,NNW,329,2.0,3.0,89,0.10,,RA,0.38,0.00,VWS V14.01,2013-04-07 00:30:00,
2013-04-06 19:35:00,38.2,35.2,29.52,North,9,4.0,7.0,89,0.11,,RA,0.39,0.00,VWS V14.01,2013-04-07 00:35:00,
2013-04-06 19:40:00,38.3,35.6,29.52,North,355,2.0,7.0,90,0.11,,RA,0.39,0.00,VWS V14.01,2013-04-07 00:40:00,
2013-04-06 19:45:00,38.3,35.3,29.52,North,360,1.0,7.0,89,0.11,,RA,0.39,0.00,VWS V14.01,2013-04-07 00:45:00,
2013-04-06 19:50:00,38.3,35.6,29.52,North,350,0.0,7.0,90,0.11,,RA,0.39,0.00,VWS V14.01,2013-04-07 00:50:00,
2013-04-06 19:55:00,38.2,35.5,29.52,NNW,345,2.0,7.0,90,0.11,,RA,0.39,0.00,VWS V14.01,2013-04-07 00:55:00,
2013-04-06 20:00:00,38.2,35.2,29.53,NNW,345,1.0,3.0,89,0.07,,-RA,0.40,0.00,VWS V14.01,2013-04-07 01:00:00,
2013-04-06 20:05:00,38.2,35.2,29.53,North,349,3.0,4.0,89,0.07,,-RA,0.40,0.00,VWS V14.01,2013-04-07 01:05:00,
2013-04-06 20:10:00,38.2,35.2,29.53,NW,307,4.0,5.0,89,0.07,,-RA,0.40,0.00,VWS V14.01,2013-04-07 01:10:00,
2013-04-06 20:15:00,38.1,35.2,29.53,NW,320,5.0,6.0,89,0.07,,-RA,0.40,0.00,VWS V14.01,2013-04-07 01:15:00,
2013-04-06 20:20:00,38.1,35.2,29.54,NNW,338,2.0,8.0,89,0.08,,-RA,0.41,0.00,VWS V14.01,2013-04-07 01:20:00,
2013-04-06 20:25:00,38.0,35.3,29.54,NW,321,2.0,8.0,90,0.08,,-RA,0.41,0.00,VWS V14.01,2013-04-07 01:25:00,
2013-04-06 20:30:00,38.0,35.0,29.54,NNW,333,3.0,5.0,89,0.03,,-RA,0.41,0.00,VWS V14.01,2013-04-07 01:30:00,
2013-04-06 20:35:00,38.0,35.3,29.55,NW,326,5.0,8.0,90,0.03,,-RA,0.41,0.00,VWS V14.01,2013-04-07 01:35:00,
2013-04-06 20:40:00,38.0,35.0,29.55,NW,308,3.0,9.0,89,0.03,,-RA,0.41,0.00,VWS V14.01,2013-04-07 01:40:00,
2013-04-06 20:45:00,37.9,35.0,29.55,NW,318,4.0,10.0,89,0.03,,-RA,0.41,0.00,VWS V14.01,2013-04-07 01:45:00,
2013-04-06 20:50:00,37.9,35.0,29.56,NW,320,3.0,10.0,89,0.03,,-RA,0.41,0.00,VWS V14.01,2013-04-07 01:50:00,
2013-04-06 20:55:00,37.8,34.9,29.56,NNW,329,2.0,10.0,89,0.03,,-RA,0.41,0.00,VWS V14.01,2013-04-07 01:55:00,
2013-04-06 21:00:00,37.9,35.0,29.56,NW,323,8.0,10.0,89,0.01,,-RA,0.41,0.00,VWS V14.01,2013-04-07 02:00:00,
2013-04-06 21:05:00,37.8,35.1,29.57,NNW,330,7.0,13.0,90,0.01,,-RA,0.41,0.00,VWS V14.01,2013-04-07 02:05:00,
2013-04-06 21:10:00,37.7,35.0,29.57,NW,315,5.0,13.0,90,0.01,,-RA,0.41,0.00,VWS V14.01,2013-04-07 02:10:00,
2013-04-06 21:15:00,37.6,34.9,29.57,NW,312,7.0,13.0,90,0.01,,-RA,0.41,0.00,VWS V14.01,2013-04-07 02:15:00,
2013-04-06 21:20:00,37.4,34.7,29.58,NW,317,9.0,13.0,90,0.01,,-RA,0.41,0.00,VWS V14.01,2013-04-07 02:20:00,
2013-04-06 21:25:00,37.2,34.5,29.58,WNW,296,7.0,15.0,90,0.01,,-RA,0.41,0.00,VWS V14.01,2013-04-07 02:25:00,
2013-04-06 21:30:00,37.0,34.3,29.59,NW,306,8.0,12.0,90,0.00,,-RA,0.41,0.00,VWS V14.01,2013-04-07 02:30:00,
2013-04-06 21:35:00,36.8,34.2,29.59,NW,325,10.0,16.0,90,0.00,,-RA,0.41,0.00,VWS V14.01,2013-04-07 02:35:00,
2013-04-06 21:40:00,36.6,34.0,29.60,West,273,5.0,16.0,90,0.00,,OVC040,0.41,0.00,VWS V14.01,2013-04-07 02:40:00,
2013-04-06 21:45:00,36.5,33.8,29.60,NW,325,7.0,16.0,90,0.00,,OVC040,0.41,0.00,VWS V14.01,2013-04-07 02:45:00,
2013-04-06 21:50:00,36.4,33.8,29.60,NNW,328,8.0,16.0,90,0.00,,OVC040,0.41,0.00,VWS V14.01,2013-04-07 02:50:00,
2013-04-06 21:55:00,36.3,33.7,29.60,NNW,338,5.0,16.0,90,0.00,,OVC040,0.41,0.00,VWS V14.01,2013-04-07 02:55:00,
2013-04-06 22:00:00,36.3,33.7,29.60,NNW,327,4.0,10.0,90,0.00,,OVC041,0.41,0.00,VWS V14.01,2013-04-07 03:00:00,
2013-04-06 22:05:00,36.2,33.6,29.61,NW,314,7.0,14.0,90,0.00,,OVC041,0.41,0.00,VWS V14.01,2013-04-07 03:05:00,
2013-04-06 22:11:00,36.2,33.6,29.61,NW,311,8.0,15.0,90,0.00,,OVC041,0.41,0.00,VWS V14.01,2013-04-07 03:11:00,
2013-04-06 22:16:00,36.1,33.5,29.61,NNW,342,6.0,15.0,90,0.00,,OVC041,0.41,0.00,VWS V14.01,2013-04-07 03:16:00,
2013-04-06 22:21:00,36.0,33.4,29.61,NW,321,3.0,16.0,90,0.00,,OVC041,0.41,0.00,VWS V14.01,2013-04-07 03:21:00,
2013-04-06 22:26:00,35.9,33.3,29.61,NW,312,13.0,16.0,90,0.00,,OVC041,0.41,0.00,VWS V14.01,2013-04-07 03:26:00,
2013-04-06 22:31:00,35.9,33.3,29.62,NW,323,13.0,13.0,90,0.00,,OVC041,0.41,0.00,VWS V14.01,2013-04-07 03:31:00,
2013-04-06 22:36:00,35.8,33.2,29.62,NNW,345,4.0,13.0,90,0.00,,OVC041,0.41,0.00,VWS V14.01,2013-04-07 03:36:00,
2013-04-06 22:41:00,35.7,33.1,29.62,NW,313,5.0,13.0,90,0.00,,OVC014,0.41,0.00,VWS V14.01,2013-04-07 03:41:00,
2013-04-06 22:46:00,35.6,33.0,29.62,NW,325,8.0,13.0,90,0.00,,OVC014,0.41,0.00,VWS V14.01,2013-04-07 03:46:00,
2013-04-06 22:51:00,35.6,33.0,29.63,NW,311,6.0,13.0,90,0.00,,OVC014,0.41,0.00,VWS V14.01,2013-04-07 03:51:00,
2013-04-06 22:57:00,35.5,32.9,29.63,North,355,6.0,14.0,90,0.00,,OVC014,0.41,0.00,VWS V14.01,2013-04-07 03:57:00,
2013-04-06 23:00:00,35.4,32.8,29.62,NW,312,3.0,3.0,90,0.00,,OVC014,0.41,0.00,VWS V14.01,2013-04-07 04:00:00,
2013-04-06 23:01:00,35.4,32.8,29.62,NW,314,3.0,4.0,90,0.00,,OVC016,0.41,0.00,VWS V14.01,2013-04-07 04:01:00,
2013-04-06 23:06:00,35.4,32.8,29.62,NW,321,6.0,11.0,90,0.00,,OVC016,0.41,0.00,VWS V14.01,2013-04-07 04:06:00,
2013-04-06 23:12:00,35.3,32.7,29.63,WNW,302,8.0,11.0,90,0.00,,OVC016,0.41,0.00,VWS V14.01,2013-04-07 04:12:00,
2013-04-06 23:17:00,35.2,32.6,29.63,NW,321,3.0,11.0,90,0.00,,OVC016,0.41,0.00,VWS V14.01,2013-04-07 04:17:00,
2013-04-06 23:22:00,35.2,32.6,29.63,WNW,300,8.0,11.0,90,0.00,,OVC016,0.41,0.00,VWS V14.01,2013-04-07 04:22:00,
2013-04-06 23:27:00,35.2,32.6,29.64,NW,319,5.0,11.0,90,0.00,,OVC016,0.41,0.00,VWS V14.01,2013-04-07 04:27:00,
2013-04-06 23:32:00,35.1,32.5,29.64,NW,304,4.0,11.0,90,0.00,,OVC016,0.41,0.00,VWS V14.01,2013-04-07 04:32:00,
2013-04-06 23:37:00,35.1,32.2,29.64,NW,323,5.0,11.0,89,0.00,,OVC016,0.41,0.00,VWS V14.01,2013-04-07 04:37:00,
2013-04-06 23:42:00,35.1,32.2,29.64,North,355,5.0,12.0,89,0.00,,OVC016,0.41,0.00,VWS V14.01,2013-04-07 04:42:00,
2013-04-06 23:47:00,35.1,32.2,29.65,WNW,298,4.0,12.0,89,0.00,,OVC016,0.41,0.00,VWS V14.01,2013-04-07 04:47:00,
2013-04-06 23:52:00,35.0,32.1,29.65,WNW,293,8.0,12.0,89,0.00,,OVC016,0.41,0.00,VWS V14.01,2013-04-07 04:52:00,
2013-04-06 23:57:00,35.0,32.1,29.66,NW,305,6.0,12.0,89,0.00,,OVC016,0.41,0.00,VWS V14.01,2013-04-07 04:57:00,